Overview Statistics Trail Chart Weather Telemetry Raw packets
 

This is the latest recevied weather packets stored in our database for station/object KB4MOX. If no packets are shown the sender has not sent any weather packets the latest 10 day(s).

<< 102 103 104 105 106 107 108 >>
Time Temp. Humidity Pressure Rain* Wind** Luminosity Snow
1787849373 31.11° C 63% 1015.8 hPa 0 mm - 194 W/m² -
1787849072 31.67° C 63% 1016 hPa 0 mm - 203 W/m² -
1787848767 31.67° C 62% 1016 hPa 0 mm - 275 W/m² -
1787848466 31.11° C 63% 1016.2 hPa 0 mm - 906 W/m² -
1787848162 31.11° C 64% 1016.4 hPa 0 mm - 372 W/m² -
1787847861 31.67° C 62% 1016.3 hPa 0 mm - 190 W/m² -
1787847557 31.67° C 62% 1016.5 hPa 0 mm - 260 W/m² -
1787847252 32.22° C 61% 1016.5 hPa 0 mm - 707 W/m² -
1787846949 31.67° C 63% 1016.4 hPa 0 mm - 707 W/m² -
1787846648 31.11° C 65% 1016.4 hPa 0 mm - 718 W/m² -
1787846343 31.11° C 65% 1016.5 hPa 0 mm - 612 W/m² -
1787846039 31.67° C 65% 1016.5 hPa 0 mm - 643 W/m² -
1787845735 30.56° C 67% 1016.8 hPa 0 mm - 706 W/m² -
1787845434 30° C 68% 1016.7 hPa 0 mm - 561 W/m² -
1787845131 30° C 68% 1016.9 hPa 0 mm - 656 W/m² -
1787844827 30° C 69% 1016.8 hPa 0 mm - 532 W/m² -
1787844525 29.44° C 69% 1016.7 hPa 0 mm - 383 W/m² -
1787844221 29.44° C 70% 1016.8 hPa 0 mm - 219 W/m² -
1787843919 29.44° C 71% 1016.8 hPa 0 mm - 217 W/m² -
1787843615 28.89° C 73% 1016.8 hPa 0 mm - 189 W/m² -
1787843311 28.89° C 74% 1016.8 hPa 0 mm - 202 W/m² -
1787843006 28.33° C 76% 1016.5 hPa 0 mm - 258 W/m² -
1787842706 28.33° C 76% 1016.7 hPa 0 mm - 159 W/m² -
1787842402 28.33° C 77% 1016.7 hPa 0 mm - 161 W/m² -
1787842101 27.78° C 80% 1016.5 hPa 0 mm - 134 W/m² -

* Rain latest hour (hover to see other rain measurements)
** Current wind speed in m/s (hover to see current wind gust speed)